Regional Weather Roundup
Issued by NWS

Home | Current Version | Previous Version | Graphics & Text | Print | Product List | Glossary On
Versions: 1 2 3 4 5 6 7 8 9 10 11 12 13 14 15 16 17 18 19 20 21 22 23 24 25 26 27 28 29 30 31 32 33 34 35 36 37 38 39 40 41 42 43 44 45 46 47 48 49 50
000
ASUS43 KMPX 300801
RWRMN
WEATHER ROUNDUP FOR MINNESOTA
NATIONAL WEATHER SERVICE TWIN CITIES/CHANHASSEN MN
300 AM CDT SAT AUG 30 2014


NOTE: "FAIR" INDICATES FEW OR NO CLOUDS BELOW 12,000 FEET WITH NO
SIGNIFICANT WEATHER AND/OR OBSTRUCTIONS TO VISIBILITY. N/A MEANS
CURRENT SKY AND/OR WEATHER CONDITIONS ARE NOT AVAILABLE.

MNZ060>063-068>070-300900-
   Twin Cities Metro

CITY           SKY/WX    TMP DP  RH WIND       PRES   REMARKS
TWIN CITIES    LGT RAIN  68  67  96 NW5       29.75F FOG
ST PAUL        LGT RAIN  67  67 100 NW7       29.75S
CRYSTAL        CLOUDY    70  66  87 NW6       29.75S
BLAINE         CLOUDY    70  70 100 N6        29.76S
LAKEVILLE      DRIZZLE   64  64 100 CALM      29.75S
EDEN PRAIRIE   CLOUDY    69  67  93 N6        29.75S
SOUTH ST PAUL  LGT RAIN  68  66  95 CALM      29.74F
LAKE ELMO      RAIN      66  66 100 N3        29.75F
$$
MNZ001>005-007-008-013>017-022>024-027-028-300900-
   Northwest Minnesota

CITY           SKY/WX    TMP DP  RH WIND       PRES   REMARKS
BEMIDJI        CLOUDY    58  55  88 N12       29.86S
HALLOCK        CLEAR     50  48  93 N6        29.94S
ROSEAU         CLEAR     50  45  81 N5        29.92S
WARROAD        CLEAR     52  48  87 NW5       29.91F
THIEF RVR FALL CLEAR     54  52  94 N9        29.91R
CROOKSTON      MOCLDY    54  52  94 N8        29.92R
FOSSTON        CLOUDY    57  55  94 N8        29.89S
DETROIT LAKES  CLOUDY    61  59  94 N6        29.87S
MOORHEAD       CLOUDY    61  61 100 N9        29.89R
PARK RAPIDS    CLOUDY    61  59  93 N14       29.84R
MAHNOMEN       CLOUDY    58  57  95 N9        29.87S
$$
MNZ006-009>011-018-025>026-300900-
   North Central Minnesota

CITY           SKY/WX    TMP DP  RH WIND       PRES   REMARKS
BAUDETTE       CLEAR     56  54  93 N8        29.89R
FLAG ISLAND    CLEAR     59  55  88 N13       29.90S
INTL FALLS     CLOUDY    58  55  90 N10       29.86R
WASKISH        CLOUDY    57  55  94 N7        29.87S
BIG FORK       FOG       59  57  94 N6        29.85R VSB 1
LONGVILLE      CLOUDY    64  63  94 CALM      29.82S
GRAND RAPIDS   CLOUDY    63  61  94 CALM      29.82S
CRANE LAKE     CLOUDY    59  57  94 N6        29.85R
ORR            CLOUDY    61  57  88 NW5       29.81R FOG
COOK           CLOUDY    61  61 100 CALM      29.83R
WALKER         CLOUDY    59  58  98 NW3       29.84S FOG
$$
MNZ012-019>021-037-300900-
   Northeast Minnesota

CITY           SKY/WX    TMP DP  RH WIND       PRES   REMARKS
DULUTH         CLOUDY    63  60  90 NE5       29.80S
ELY            CLOUDY    57  57 100 CALM      29.83R
HIBBING        CLOUDY    61  59  93 CALM      29.82S
EVELETH        CLOUDY    59  59 100 CALM      29.83S
DULUTH HARBOR  CLOUDY    63  61  94 CALM      29.79F
TWO HARBORS    CLOUDY    61  55  82 CALM      29.79R
SILVER BAY     CLOUDY    59  59 100 CALM      29.79S
GRAND MARAIS     N/A     58  57  97 N3        29.79R
G MARAIS ARPRT CLOUDY    54  52  94 N5        29.83S
$$
MNZ029>031-032-039>041-046>048-054>057-064-300900-
   West Central Minnesota

CITY           SKY/WX    TMP DP  RH WIND       PRES   REMARKS
FERGUS FALLS   CLOUDY    63  61  94 N7        29.85R
WHEATON        CLOUDY    59  55  88 NW8       29.88S
MORRIS         FOG       63  63 100 NW15      29.83S VSB 3/4
ALEXANDRIA     MOCLDY    65  64  97 N6        29.84S
ELBOW LAKE     CLOUDY    61  61 100 NW8       29.84S FOG
WADENA         CLOUDY    63  63 100 NW3       29.83R
GLENWOOD       PTCLDY    64  64 100 NW5       29.83S
APPLETON       CLOUDY    64  61  88 N13       29.84R
BENSON         CLOUDY    64  63  94 N10       29.83R
ORTONVILLE     CLOUDY    63  57  82 NW12G17   29.86R
MADISON        MOCLDY    66  63  88 NW13      29.85R
WILLMAR        MOCLDY    68  64  88 N3        29.82S
$$
MNZ033>034-036-042>043-049>051-058-059-300900-
   Central Minnesota

CITY           SKY/WX    TMP DP  RH WIND       PRES   REMARKS
ST CLOUD       MOCLDY    68  65  90 CALM      29.78F
SAUK CENTRE    CLOUDY    63  63 100 W5        29.82S
PAYNESVILLE    HVY RAIN  64  64 100 NW5       29.81S
AITKIN         CLOUDY    64  59  82 CALM      29.80S HAZE
PINE RIVER     RAIN      64  64 100 N5        29.86R
BRAINERD       CLOUDY    64  63  96 CALM      29.82S
STAPLES        CLOUDY    64  63  94 N3        29.82S
LONG PRAIRIE   CLOUDY    63  63 100 NW5       29.82S
LITTLE FALLS   CLOUDY    64  63  94 CALM      29.80S FOG
LITCHFIELD     CLOUDY    68  68 100 NW6       29.80S FOG
BUFFALO        MOCLDY    67  65  93 CALM      29.78F
MAPLE LAKE     CLOUDY    68  67  98 CALM      29.79F
$$
MNZ037-044-045-052-053-300900-
   East Central Minnesota

CITY           SKY/WX    TMP DP  RH WIND       PRES   REMARKS
PRINCETON      CLOUDY    66  64  94 N3        29.78S
MORA           CLOUDY    64  64 100 CALM      29.80S
CAMBRIDGE      CLOUDY    68  61  77 N3        29.76F
RUSH CITY      CLOUDY    65  64  95 N3        29.78S
MOOSE LAKE     CLOUDY    63  61  94 CALM      29.77F FOG
HINCKLEY       CLOUDY    64  64 100 N3        29.79S
CLOQUET        MOCLDY    63  61  94 CALM      29.80S
MCGREGOR       CLOUDY    61  59  94 NW3       29.81S VSB 1/4
$$
MNZ071>073-080-081-089-090-097-098-300900-
   Southwest Minnesota

CITY           SKY/WX    TMP DP  RH WIND       PRES   REMARKS
MONTEVIDEO     CLOUDY    64  64 100 N12       29.84R FOG
GRANITE FALLS  MOCLDY    65  65 100 W7        29.84R
CANBY          CLOUDY    63  62  97 NW12      29.87R
MARSHALL       CLOUDY    64  63  94 NW13      29.83R
REDWOOD FALLS  MOCLDY    65  65 100 NW8       29.80S
OLIVIA         CLOUDY    68  64  88 N7        29.80S
PIPESTONE      MOCLDY    64  64 100 N5        29.86S
WINDOM         MOCLDY    66  64  94 NW6       29.82S FOG
WORTHINGTON    PTCLDY    66  64  94 NW7       29.85R
JACKSON        CLOUDY    66  64  94 NW6       29.83R
TRACY          MOCLDY    66  65  97 NW7       29.84R
SLAYTON        MOCLDY    64  64 100 CALM      29.85S FOG
$$
MNZ065>067-074>077-082>085-091>093-300900-
   South Central Minnesota

CITY           SKY/WX    TMP DP  RH WIND       PRES   REMARKS
MANKATO        CLOUDY    66  63  88 W7        29.77S
NEW ULM        PTCLDY    64  64 100 NW5       29.79R
ST JAMES       CLOUDY    66  64  94 W5        29.81R
FAIRMONT       CLOUDY    64  55  72 NW6       29.80R
GLENCOE        MOCLDY    67  65  91 NW3       29.77S FOG
FARIBAULT      CLOUDY    70  63  78 CALM      29.77R
OWATONNA       LGT RAIN  68  66  94 CALM      29.76S
WASECA         DRIZZLE   63  61  94 CALM      29.78S
ALBERT LEA     RAIN      64  64 100 CALM      29.77S
$$
MNZ078>079-086>088-094>096-300900-
   Southeast Minnesota

CITY           SKY/WX    TMP DP  RH WIND       PRES   REMARKS
ROCHESTER      CLOUDY    66  63  90 S6        29.77S
RED WING       CLOUDY    66  64  94 CALM      29.74R FOG
STANTON        CLOUDY    67  65  93 CALM      29.74R
DODGE CENTER   RAIN      68  66  94 W5        29.76S
WINONA         CLOUDY    66  64  94 CALM      29.74F
AUSTIN         CLOUDY    66  66 100 W6        29.76S FOG
PRESTON        LGT RAIN  65  65 100 CALM      29.77S
$$
ABBREVIATIONS USED IN REMARKS
   TC - TEMPERATURES IN CELSIUS
  WCI - WIND CHILL INDEX
   HX - HEAT INDEX
  VSB - VISIBILITY
$$



USA.gov is the U.S. government's official web portal to all federal, state and local government web resources and services.